owner,sensor,date,latitude,longitude,vertical_datum,mass_concentration_of_oxygen_in_sea_water,qcFlag 
SCCF RECON,ioos:station:SCCF:13:1,2017-12-01T05:00:00Z,26.5255,-82.0032,2.68,6.9,1111122 
SCCF RECON,ioos:station:SCCF:13:1,2017-12-01T06:00:00Z,26.5255,-82.0032,2.55,6.81,1111122 
SCCF RECON,ioos:station:SCCF:13:1,2017-12-01T07:00:00Z,26.5255,-82.0032,2.403,6.94,1111122 
SCCF RECON,ioos:station:SCCF:13:1,2017-12-01T08:00:00Z,26.5255,-82.0032,2.3,7.67,1111122 
SCCF RECON,ioos:station:SCCF:13:1,2017-12-01T09:00:00Z,26.5255,-82.0032,2.211,7.68,1111122 
SCCF RECON,ioos:station:SCCF:13:1,2017-12-01T10:00:00Z,26.5255,-82.0032,2.13,7.76,1111122 
SCCF RECON,ioos:station:SCCF:13:1,2017-12-01T11:00:00Z,26.5255,-82.0032,2.083,7.72,1111122 
SCCF RECON,ioos:station:SCCF:13:1,2017-12-01T12:00:00Z,26.5255,-82.0032,2.151,7.76,1111122 
SCCF RECON,ioos:station:SCCF:13:1,2017-12-01T13:00:00Z,26.5255,-82.0032,2.311,7.81,1111122 
SCCF RECON,ioos:station:SCCF:13:1,2017-12-01T14:00:00Z,26.5255,-82.0032,2.41,7.7,1111122 
SCCF RECON,ioos:station:SCCF:13:1,2017-12-01T15:00:00Z,26.5255,-82.0032,2.49,7.29,1111122 
SCCF RECON,ioos:station:SCCF:13:1,2017-12-01T16:00:00Z,26.5255,-82.0032,2.557,7.05,1111122 
SCCF RECON,ioos:station:SCCF:13:1,2017-12-01T17:00:00Z,26.5255,-82.0032,2.579,6.87,1111122 
SCCF RECON,ioos:station:SCCF:13:1,2017-12-01T18:00:00Z,26.5255,-82.0032,2.532,6.89,1111122 
SCCF RECON,ioos:station:SCCF:13:1,2017-12-01T19:00:00Z,26.5255,-82.0032,2.46,6.62,1111122 
SCCF RECON,ioos:station:SCCF:13:1,2017-12-01T20:00:00Z,26.5255,-82.0032,2.39,6.75,1111122 
SCCF RECON,ioos:station:SCCF:13:1,2017-12-01T21:00:00Z,26.5255,-82.0032,2.331,6.92,1111122 
SCCF RECON,ioos:station:SCCF:13:1,2017-12-01T22:00:00Z,26.5255,-82.0032,2.3,7.59,1111122 
SCCF RECON,ioos:station:SCCF:13:1,2017-12-02T05:00:00Z,26.5255,-82.0032,2.8,6.74,1111122 
SCCF RECON,ioos:station:SCCF:13:1,2017-12-02T06:00:00Z,26.5255,-82.0032,2.7,6.69,1111122 
SCCF RECON,ioos:station:SCCF:13:1,2017-12-02T07:00:00Z,26.5255,-82.0032,2.54,6.59,1111122 
SCCF RECON,ioos:station:SCCF:13:1,2017-12-02T08:00:00Z,26.5255,-82.0032,2.398,7.05,1111122 
SCCF RECON,ioos:station:SCCF:13:1,2017-12-02T09:00:00Z,26.5255,-82.0032,2.3,7.49,1111122 
SCCF RECON,ioos:station:SCCF:13:1,2017-12-02T10:00:00Z,26.5255,-82.0032,2.199,7.57,1111122 
SCCF RECON,ioos:station:SCCF:13:1,2017-12-02T11:00:00Z,26.5255,-82.0032,2.12,7.49,1111122 
SCCF RECON,ioos:station:SCCF:13:1,2017-12-02T12:00:00Z,26.5255,-82.0032,2.095,7.52,1111122 
SCCF RECON,ioos:station:SCCF:13:1,2017-12-02T13:00:00Z,26.5255,-82.0032,2.207,7.58,1111122 
SCCF RECON,ioos:station:SCCF:13:1,2017-12-02T14:00:00Z,26.5255,-82.0032,2.37,7.63,1111122 
SCCF RECON,ioos:station:SCCF:13:1,2017-12-02T15:00:00Z,26.5255,-82.0032,2.465,7.29,1111122 
SCCF RECON,ioos:station:SCCF:13:1,2017-12-02T16:00:00Z,26.5255,-82.0032,2.54,7.12,1111122 
SCCF RECON,ioos:station:SCCF:13:1,2017-12-02T17:00:00Z,26.5255,-82.0032,2.612,6.75,1111122 
SCCF RECON,ioos:station:SCCF:13:1,2017-12-02T18:00:00Z,26.5255,-82.0032,2.62,6.74,1111122 
SCCF RECON,ioos:station:SCCF:13:1,2017-12-02T19:00:00Z,26.5255,-82.0032,2.569,6.79,1111122 
SCCF RECON,ioos:station:SCCF:13:1,2017-12-02T20:00:00Z,26.5255,-82.0032,2.494,6.62,1111122 
SCCF RECON,ioos:station:SCCF:13:1,2017-12-02T21:00:00Z,26.5255,-82.0032,2.422,6.74,1111122 
SCCF RECON,ioos:station:SCCF:13:1,2017-12-02T22:00:00Z,26.5255,-82.0032,2.374,6.81,1111122 
SCCF RECON,ioos:station:SCCF:13:1,2017-12-03T05:00:00Z,26.5255,-82.0032,2.86,6.6,1111122 
SCCF RECON,ioos:station:SCCF:13:1,2017-12-03T06:00:00Z,26.5255,-82.0032,2.829,6.54,1111122 
SCCF RECON,ioos:station:SCCF:13:1,2017-12-03T07:00:00Z,26.5255,-82.0032,2.69,6.46,1111122 
SCCF RECON,ioos:station:SCCF:13:1,2017-12-03T08:00:00Z,26.5255,-82.0032,2.521,6.46,1111122 
SCCF RECON,ioos:station:SCCF:13:1,2017-12-03T09:00:00Z,26.5255,-82.0032,2.409,6.91,1111122 
SCCF RECON,ioos:station:SCCF:13:1,2017-12-03T10:00:00Z,26.5255,-82.0032,2.309,7.1,1111122 
SCCF RECON,ioos:station:SCCF:13:1,2017-12-03T11:00:00Z,26.5255,-82.0032,2.206,7.18,1111122 
SCCF RECON,ioos:station:SCCF:13:1,2017-12-03T12:00:00Z,26.5255,-82.0032,2.129,7.11,1111122 
SCCF RECON,ioos:station:SCCF:13:1,2017-12-03T13:00:00Z,26.5255,-82.0032,2.102,7.21,1111122 
SCCF RECON,ioos:station:SCCF:13:1,2017-12-03T14:00:00Z,26.5255,-82.0032,2.25,7.31,1111122 
SCCF RECON,ioos:station:SCCF:13:1,2017-12-03T15:00:00Z,26.5255,-82.0032,2.405,7.38,1111122 
SCCF RECON,ioos:station:SCCF:13:1,2017-12-03T16:00:00Z,26.5255,-82.0032,2.492,7.17,1111122 
SCCF RECON,ioos:station:SCCF:13:1,2017-12-03T17:00:00Z,26.5255,-82.0032,2.57,6.84,1111122 
SCCF RECON,ioos:station:SCCF:13:1,2017-12-03T18:00:00Z,26.5255,-82.0032,2.632,6.57,1111122 
SCCF RECON,ioos:station:SCCF:13:1,2017-12-03T19:00:00Z,26.5255,-82.0032,2.651,6.54,1111122 
SCCF RECON,ioos:station:SCCF:13:1,2017-12-03T20:00:00Z,26.5255,-82.0032,2.602,6.69,1111122 
SCCF RECON,ioos:station:SCCF:13:1,2017-12-03T21:00:00Z,26.5255,-82.0032,2.53,6.55,1111122 
SCCF RECON,ioos:station:SCCF:13:1,2017-12-03T22:00:00Z,26.5255,-82.0032,2.476,6.73,1111122 
SCCF RECON,ioos:station:SCCF:13:1,2017-12-04T05:00:00Z,26.5255,-82.0032,2.84,6.41,1111122 
SCCF RECON,ioos:station:SCCF:13:1,2017-12-04T06:00:00Z,26.5255,-82.0032,2.85,6.41,1111122 
SCCF RECON,ioos:station:SCCF:13:1,2017-12-04T07:00:00Z,26.5255,-82.0032,2.776,6.32,1111122 
SCCF RECON,ioos:station:SCCF:13:1,2017-12-04T08:00:00Z,26.5255,-82.0032,2.63,6.43,1111122 
SCCF RECON,ioos:station:SCCF:13:1,2017-12-04T09:00:00Z,26.5255,-82.0032,2.48,6.55,1111122 
SCCF RECON,ioos:station:SCCF:13:1,2017-12-04T10:00:00Z,26.5255,-82.0032,2.371,6.94,1111122 
SCCF RECON,ioos:station:SCCF:13:1,2017-12-04T11:00:00Z,26.5255,-82.0032,2.262,7.08,1111122 
SCCF RECON,ioos:station:SCCF:13:1,2017-12-04T12:00:00Z,26.5255,-82.0032,2.168,7.09,1111122 
SCCF RECON,ioos:station:SCCF:13:1,2017-12-04T13:00:00Z,26.5255,-82.0032,2.089,7.15,1111122 
SCCF RECON,ioos:station:SCCF:13:1,2017-12-04T14:00:00Z,26.5255,-82.0032,2.071,7.21,1111122 
SCCF RECON,ioos:station:SCCF:13:1,2017-12-04T15:00:00Z,26.5255,-82.0032,2.23,7.29,1111122 
SCCF RECON,ioos:station:SCCF:13:1,2017-12-04T16:00:00Z,26.5255,-82.0032,2.377,7.38,1111122 
SCCF RECON,ioos:station:SCCF:13:1,2017-12-04T17:00:00Z,26.5255,-82.0032,2.445,7.28,1111122 
SCCF RECON,ioos:station:SCCF:13:1,2017-12-04T18:00:00Z,26.5255,-82.0032,2.518,6.92,1111122 
SCCF RECON,ioos:station:SCCF:13:1,2017-12-04T19:00:00Z,26.5255,-82.0032,2.579,6.63,1111122 
SCCF RECON,ioos:station:SCCF:13:1,2017-12-04T20:00:00Z,26.5255,-82.0032,2.591,6.68,1111122 
SCCF RECON,ioos:station:SCCF:13:1,2017-12-04T21:00:00Z,26.5255,-82.0032,2.56,6.67,1111122 
SCCF RECON,ioos:station:SCCF:13:1,2017-12-04T22:00:00Z,26.5255,-82.0032,2.52,6.56,1111122 
SCCF RECON,ioos:station:SCCF:13:1,2017-12-05T05:00:00Z,26.5255,-82.0032,2.85,6.44,1111122 
SCCF RECON,ioos:station:SCCF:13:1,2017-12-05T06:00:00Z,26.5255,-82.0032,2.88,6.47,1111122 
SCCF RECON,ioos:station:SCCF:13:1,2017-12-05T07:00:00Z,26.5255,-82.0032,2.87,6.48,1111122 
SCCF RECON,ioos:station:SCCF:13:1,2017-12-05T08:00:00Z,26.5255,-82.0032,2.784,6.41,1111122 
SCCF RECON,ioos:station:SCCF:13:1,2017-12-05T09:00:00Z,26.5255,-82.0032,2.631,6.31,1111122 
SCCF RECON,ioos:station:SCCF:13:1,2017-12-05T10:00:00Z,26.5255,-82.0032,2.49,6.68,1111122 
SCCF RECON,ioos:station:SCCF:13:1,2017-12-05T11:00:00Z,26.5255,-82.0032,2.4,6.98,1111122 
SCCF RECON,ioos:station:SCCF:13:1,2017-12-05T12:00:00Z,26.5255,-82.0032,2.288,7.16,1111122 
SCCF RECON,ioos:station:SCCF:13:1,2017-12-05T13:00:00Z,26.5255,-82.0032,2.19,7.07,1111122 
SCCF RECON,ioos:station:SCCF:13:1,2017-12-05T14:00:00Z,26.5255,-82.0032,2.12,7.13,1111122 
SCCF RECON,ioos:station:SCCF:13:1,2017-12-05T15:00:00Z,26.5255,-82.0032,2.142,7.14,1111122 
SCCF RECON,ioos:station:SCCF:13:1,2017-12-05T16:00:00Z,26.5255,-82.0032,2.31,7.2,1111122 
SCCF RECON,ioos:station:SCCF:13:1,2017-12-05T17:00:00Z,26.5255,-82.0032,2.43,7.24,1111122 
SCCF RECON,ioos:station:SCCF:13:1,2017-12-05T18:00:00Z,26.5255,-82.0032,2.48,7.16,1111122 
SCCF RECON,ioos:station:SCCF:13:1,2017-12-05T19:00:00Z,26.5255,-82.0032,2.535,6.78,1111122 
SCCF RECON,ioos:station:SCCF:13:1,2017-12-05T20:00:00Z,26.5255,-82.0032,2.58,6.78,1111122 
SCCF RECON,ioos:station:SCCF:13:1,2017-12-05T21:00:00Z,26.5255,-82.0032,2.59,6.72,1111122 
SCCF RECON,ioos:station:SCCF:13:1,2017-12-05T22:00:00Z,26.5255,-82.0032,2.559,6.64,1111122 
SCCF RECON,ioos:station:SCCF:13:1,2017-12-06T05:00:00Z,26.5255,-82.0032,2.79,6.56,1111122 
SCCF RECON,ioos:station:SCCF:13:1,2017-12-06T06:00:00Z,26.5255,-82.0032,2.83,6.63,1111122 
SCCF RECON,ioos:station:SCCF:13:1,2017-12-06T07:00:00Z,26.5255,-82.0032,2.85,6.68,1111122 
SCCF RECON,ioos:station:SCCF:13:1,2017-12-06T08:00:00Z,26.5255,-82.0032,2.82,6.63,1111122 
SCCF RECON,ioos:station:SCCF:13:1,2017-12-06T09:00:00Z,26.5255,-82.0032,2.722,6.57,1111122 
SCCF RECON,ioos:station:SCCF:13:1,2017-12-06T10:00:00Z,26.5255,-82.0032,2.57,6.45,1111122 
SCCF RECON,ioos:station:SCCF:13:1,2017-12-06T11:00:00Z,26.5255,-82.0032,2.45,6.68,1111122 
SCCF RECON,ioos:station:SCCF:13:1,2017-12-06T12:00:00Z,26.5255,-82.0032,2.348,6.89,1111122 
SCCF RECON,ioos:station:SCCF:13:1,2017-12-06T13:00:00Z,26.5255,-82.0032,2.243,6.91,1111122 
SCCF RECON,ioos:station:SCCF:13:1,2017-12-06T14:00:00Z,26.5255,-82.0032,2.157,6.88,1111122 
SCCF RECON,ioos:station:SCCF:13:1,2017-12-06T15:00:00Z,26.5255,-82.0032,2.1,6.88,1111122 
SCCF RECON,ioos:station:SCCF:13:1,2017-12-06T16:00:00Z,26.5255,-82.0032,2.15,6.96,1111122 
SCCF RECON,ioos:station:SCCF:13:1,2017-12-06T17:00:00Z,26.5255,-82.0032,2.326,7.11,1111122 
SCCF RECON,ioos:station:SCCF:13:1,2017-12-06T18:00:00Z,26.5255,-82.0032,2.402,7.08,1111122 
SCCF RECON,ioos:station:SCCF:13:1,2017-12-06T19:00:00Z,26.5255,-82.0032,2.459,7.18,1111122 
SCCF RECON,ioos:station:SCCF:13:1,2017-12-06T20:00:00Z,26.5255,-82.0032,2.516,6.89,1111122 
SCCF RECON,ioos:station:SCCF:13:1,2017-12-06T21:00:00Z,26.5255,-82.0032,2.571,6.9,1111122 
SCCF RECON,ioos:station:SCCF:13:1,2017-12-06T22:00:00Z,26.5255,-82.0032,2.58,6.91,1111122 
SCCF RECON,ioos:station:SCCF:13:1,2017-12-07T05:00:00Z,26.5255,-82.0032,2.653,6.79,1111122 
SCCF RECON,ioos:station:SCCF:13:1,2017-12-07T06:00:00Z,26.5255,-82.0032,2.71,6.7,1111122 
SCCF RECON,ioos:station:SCCF:13:1,2017-12-07T07:00:00Z,26.5255,-82.0032,2.72,6.75,1111122 
SCCF RECON,ioos:station:SCCF:13:1,2017-12-07T08:00:00Z,26.5255,-82.0032,2.74,6.75,1111122 
SCCF RECON,ioos:station:SCCF:13:1,2017-12-07T09:00:00Z,26.5255,-82.0032,2.74,6.7,1111122 
SCCF RECON,ioos:station:SCCF:13:1,2017-12-07T10:00:00Z,26.5255,-82.0032,2.67,6.66,1111122 
SCCF RECON,ioos:station:SCCF:13:1,2017-12-07T11:00:00Z,26.5255,-82.0032,2.52,6.53,1111122 
SCCF RECON,ioos:station:SCCF:13:1,2017-12-07T12:00:00Z,26.5255,-82.0032,2.38,6.84,1111122 
SCCF RECON,ioos:station:SCCF:13:1,2017-12-07T13:00:00Z,26.5255,-82.0032,2.289,6.93,1111122 
SCCF RECON,ioos:station:SCCF:13:1,2017-12-07T14:00:00Z,26.5255,-82.0032,2.196,6.95,1111122 
SCCF RECON,ioos:station:SCCF:13:1,2017-12-07T15:00:00Z,26.5255,-82.0032,2.118,6.93,1111122 
SCCF RECON,ioos:station:SCCF:13:1,2017-12-07T16:00:00Z,26.5255,-82.0032,2.063,7.06,1111122 
SCCF RECON,ioos:station:SCCF:13:1,2017-12-07T17:00:00Z,26.5255,-82.0032,2.13,7.19,1111122 
SCCF RECON,ioos:station:SCCF:13:1,2017-12-07T18:00:00Z,26.5255,-82.0032,2.284,7.32,1111122 
SCCF RECON,ioos:station:SCCF:13:1,2017-12-07T19:00:00Z,26.5255,-82.0032,2.363,7.58,1111122 
SCCF RECON,ioos:station:SCCF:13:1,2017-12-07T20:00:00Z,26.5255,-82.0032,2.42,7.45,1111122 
SCCF RECON,ioos:station:SCCF:13:1,2017-12-07T22:00:00Z,26.5255,-82.0032,2.537,7.23,1111122 
SCCF RECON,ioos:station:SCCF:13:1,2017-12-08T05:00:00Z,26.5255,-82.0032,2.55,6.51,1111122 
SCCF RECON,ioos:station:SCCF:13:1,2017-12-08T06:00:00Z,26.5255,-82.0032,2.62,6.76,1111122 
SCCF RECON,ioos:station:SCCF:13:1,2017-12-08T07:00:00Z,26.5255,-82.0032,2.67,6.92,1111122 
SCCF RECON,ioos:station:SCCF:13:1,2017-12-08T08:00:00Z,26.5255,-82.0032,2.71,6.86,1111122 
SCCF RECON,ioos:station:SCCF:13:1,2017-12-08T09:00:00Z,26.5255,-82.0032,2.74,7.07,1111122 
SCCF RECON,ioos:station:SCCF:13:1,2017-12-08T10:00:00Z,26.5255,-82.0032,2.74,7.03,1111122 
SCCF RECON,ioos:station:SCCF:13:1,2017-12-08T11:00:00Z,26.5255,-82.0032,2.68,7.01,1111122 
SCCF RECON,ioos:station:SCCF:13:1,2017-12-08T12:00:00Z,26.5255,-82.0032,2.54,6.85,1111122 
SCCF RECON,ioos:station:SCCF:13:1,2017-12-08T13:00:00Z,26.5255,-82.0032,2.411,6.95,1111122 
SCCF RECON,ioos:station:SCCF:13:1,2017-12-08T14:00:00Z,26.5255,-82.0032,2.332,7.14,1111122 
SCCF RECON,ioos:station:SCCF:13:1,2017-12-08T15:00:00Z,26.5255,-82.0032,2.24,7.15,1111122 
SCCF RECON,ioos:station:SCCF:13:1,2017-12-08T16:00:00Z,26.5255,-82.0032,2.159,7.11,1111122 
SCCF RECON,ioos:station:SCCF:13:1,2017-12-08T17:00:00Z,26.5255,-82.0032,2.139,7.12,1111122 
SCCF RECON,ioos:station:SCCF:13:1,2017-12-08T18:00:00Z,26.5255,-82.0032,2.23,7.25,1111122 
SCCF RECON,ioos:station:SCCF:13:1,2017-12-08T19:00:00Z,26.5255,-82.0032,2.335,7.46,1111122 
SCCF RECON,ioos:station:SCCF:13:1,2017-12-08T20:00:00Z,26.5255,-82.0032,2.397,7.75,1111122 
SCCF RECON,ioos:station:SCCF:13:1,2017-12-08T21:00:00Z,26.5255,-82.0032,2.47,7.67,1111122 
SCCF RECON,ioos:station:SCCF:13:1,2017-12-08T22:00:00Z,26.5255,-82.0032,2.54,7.75,1111122 
SCCF RECON,ioos:station:SCCF:13:1,2017-12-09T05:00:00Z,26.5255,-82.0032,2.526,6.98,1111122 
SCCF RECON,ioos:station:SCCF:13:1,2017-12-09T06:00:00Z,26.5255,-82.0032,2.62,6.8,1111122 
SCCF RECON,ioos:station:SCCF:13:1,2017-12-09T07:00:00Z,26.5255,-82.0032,2.69,7.16,1111122 
SCCF RECON,ioos:station:SCCF:13:1,2017-12-09T08:00:00Z,26.5255,-82.0032,2.72,7.12,1111122 
SCCF RECON,ioos:station:SCCF:13:1,2017-12-09T09:00:00Z,26.5255,-82.0032,2.762,7.17,1111122 
SCCF RECON,ioos:station:SCCF:13:1,2017-12-09T10:00:00Z,26.5255,-82.0032,2.794,7.1,1111122 
SCCF RECON,ioos:station:SCCF:13:1,2017-12-09T11:00:00Z,26.5255,-82.0032,2.77,7.12,1111122 
SCCF RECON,ioos:station:SCCF:13:1,2017-12-09T12:00:00Z,26.5255,-82.0032,2.739,7.09,1111122 
SCCF RECON,ioos:station:SCCF:13:1,2017-12-09T13:00:00Z,26.5255,-82.0032,2.64,6.97,1111122 
SCCF RECON,ioos:station:SCCF:13:1,2017-12-09T14:00:00Z,26.5255,-82.0032,2.54,7.12,1111122 
SCCF RECON,ioos:station:SCCF:13:1,2017-12-09T15:00:00Z,26.5255,-82.0032,2.43,7.23,1111122 
SCCF RECON,ioos:station:SCCF:13:1,2017-12-09T16:00:00Z,26.5255,-82.0032,2.32,7.4,1111122 
SCCF RECON,ioos:station:SCCF:13:1,2017-12-09T17:00:00Z,26.5255,-82.0032,2.215,7.44,1111122 
SCCF RECON,ioos:station:SCCF:13:1,2017-12-09T18:00:00Z,26.5255,-82.0032,2.169,7.48,1111122 
SCCF RECON,ioos:station:SCCF:13:1,2017-12-09T19:00:00Z,26.5255,-82.0032,2.212,7.56,1111122 
SCCF RECON,ioos:station:SCCF:13:1,2017-12-09T20:00:00Z,26.5255,-82.0032,2.306,7.64,1111122 
SCCF RECON,ioos:station:SCCF:13:1,2017-12-09T21:00:00Z,26.5255,-82.0032,2.301,7.71,1111122 
SCCF RECON,ioos:station:SCCF:13:1,2017-12-09T22:00:00Z,26.5255,-82.0032,2.3,7.72,1111122 
SCCF RECON,ioos:station:SCCF:13:1,2017-12-10T05:00:00Z,26.5255,-82.0032,2.14,8.8,1111122 
SCCF RECON,ioos:station:SCCF:13:1,2017-12-10T06:00:00Z,26.5255,-82.0032,2.09,8.81,1111122 
SCCF RECON,ioos:station:SCCF:13:1,2017-12-10T07:00:00Z,26.5255,-82.0032,2.086,8.7,1111122 
SCCF RECON,ioos:station:SCCF:13:1,2017-12-10T08:00:00Z,26.5255,-82.0032,2.14,8.65,1111122 
SCCF RECON,ioos:station:SCCF:13:1,2017-12-10T09:00:00Z,26.5255,-82.0032,2.2,8.7,1111122 
SCCF RECON,ioos:station:SCCF:13:1,2017-12-10T10:00:00Z,26.5255,-82.0032,2.22,8.82,1111122 
SCCF RECON,ioos:station:SCCF:13:1,2017-12-10T11:00:00Z,26.5255,-82.0032,2.222,8.42,1111122 
SCCF RECON,ioos:station:SCCF:13:1,2017-12-10T12:00:00Z,26.5255,-82.0032,2.24,8.28,1111122 
SCCF RECON,ioos:station:SCCF:13:1,2017-12-10T13:00:00Z,26.5255,-82.0032,2.25,8.24,1111122 
SCCF RECON,ioos:station:SCCF:13:1,2017-12-10T14:00:00Z,26.5255,-82.0032,2.22,8.11,1111122 
SCCF RECON,ioos:station:SCCF:13:1,2017-12-10T15:00:00Z,26.5255,-82.0032,2.14,8.6,1111122 
SCCF RECON,ioos:station:SCCF:13:1,2017-12-10T16:00:00Z,26.5255,-82.0032,2.072,11.27,1111122 
SCCF RECON,ioos:station:SCCF:13:1,2017-12-10T17:00:00Z,26.5255,-82.0032,2.03,11.16,1111122 
SCCF RECON,ioos:station:SCCF:13:1,2017-12-10T18:00:00Z,26.5255,-82.0032,1.992,10.23,1111122 
SCCF RECON,ioos:station:SCCF:13:1,2017-12-10T19:00:00Z,26.5255,-82.0032,1.99,9.99,1111122 
SCCF RECON,ioos:station:SCCF:13:1,2017-12-10T20:00:00Z,26.5255,-82.0032,2.06,9.69,1111122 
SCCF RECON,ioos:station:SCCF:13:1,2017-12-10T21:00:00Z,26.5255,-82.0032,2.176,9.06,1111122 
SCCF RECON,ioos:station:SCCF:13:1,2017-12-10T22:00:00Z,26.5255,-82.0032,2.27,8.53,1111122 
SCCF RECON,ioos:station:SCCF:13:1,2017-12-11T05:00:00Z,26.5255,-82.0032,2.31,7.31,1111122 
SCCF RECON,ioos:station:SCCF:13:1,2017-12-11T06:00:00Z,26.5255,-82.0032,2.239,7.57,1111122 
SCCF RECON,ioos:station:SCCF:13:1,2017-12-11T07:00:00Z,26.5255,-82.0032,2.179,8.08,1111122 
SCCF RECON,ioos:station:SCCF:13:1,2017-12-11T08:00:00Z,26.5255,-82.0032,2.17,8.32,1111122 
SCCF RECON,ioos:station:SCCF:13:1,2017-12-11T09:00:00Z,26.5255,-82.0032,2.21,8.26,1111122 
SCCF RECON,ioos:station:SCCF:13:1,2017-12-11T10:00:00Z,26.5255,-82.0032,2.26,8.21,1111122 
SCCF RECON,ioos:station:SCCF:13:1,2017-12-11T11:00:00Z,26.5255,-82.0032,2.32,7.19,1111122 
SCCF RECON,ioos:station:SCCF:13:1,2017-12-11T12:00:00Z,26.5255,-82.0032,2.36,7.25,1111122 
SCCF RECON,ioos:station:SCCF:13:1,2017-12-11T13:00:00Z,26.5255,-82.0032,2.39,7.06,1111122 
SCCF RECON,ioos:station:SCCF:13:1,2017-12-11T14:00:00Z,26.5255,-82.0032,2.38,7.04,1111122 
SCCF RECON,ioos:station:SCCF:13:1,2017-12-11T15:00:00Z,26.5255,-82.0032,2.32,6.9,1111122 
SCCF RECON,ioos:station:SCCF:13:1,2017-12-11T16:00:00Z,26.5255,-82.0032,2.25,6.97,1111122 
SCCF RECON,ioos:station:SCCF:13:1,2017-12-11T17:00:00Z,26.5255,-82.0032,2.18,7.46,1111122 
SCCF RECON,ioos:station:SCCF:13:1,2017-12-11T18:00:00Z,26.5255,-82.0032,2.12,8.4,1111122 
SCCF RECON,ioos:station:SCCF:13:1,2017-12-11T19:00:00Z,26.5255,-82.0032,2.076,8.53,1111122 
SCCF RECON,ioos:station:SCCF:13:1,2017-12-11T20:00:00Z,26.5255,-82.0032,2.09,8.56,1111122 
SCCF RECON,ioos:station:SCCF:13:1,2017-12-11T21:00:00Z,26.5255,-82.0032,2.17,8.56,1111122 
SCCF RECON,ioos:station:SCCF:13:1,2017-12-11T22:00:00Z,26.5255,-82.0032,2.28,7.27,1111122 
SCCF RECON,ioos:station:SCCF:13:1,2017-12-12T05:00:00Z,26.5255,-82.0032,2.41,7.26,1111122 
SCCF RECON,ioos:station:SCCF:13:1,2017-12-12T06:00:00Z,26.5255,-82.0032,2.33,7.27,1111122 
SCCF RECON,ioos:station:SCCF:13:1,2017-12-12T07:00:00Z,26.5255,-82.0032,2.26,7.6,1111122 
SCCF RECON,ioos:station:SCCF:13:1,2017-12-12T08:00:00Z,26.5255,-82.0032,2.217,7.8,1111122 
SCCF RECON,ioos:station:SCCF:13:1,2017-12-12T09:00:00Z,26.5255,-82.0032,2.22,8.04,1111122 
SCCF RECON,ioos:station:SCCF:13:1,2017-12-12T10:00:00Z,26.5255,-82.0032,2.31,8.04,1111122 
SCCF RECON,ioos:station:SCCF:13:1,2017-12-12T11:00:00Z,26.5255,-82.0032,2.4,7.4,1111122 
SCCF RECON,ioos:station:SCCF:13:1,2017-12-12T12:00:00Z,26.5255,-82.0032,2.46,7.59,1111122 
SCCF RECON,ioos:station:SCCF:13:1,2017-12-12T13:00:00Z,26.5255,-82.0032,2.51,7.24,1111122 
SCCF RECON,ioos:station:SCCF:13:1,2017-12-12T14:00:00Z,26.5255,-82.0032,2.57,7.03,1111122 
SCCF RECON,ioos:station:SCCF:13:1,2017-12-12T15:00:00Z,26.5255,-82.0032,2.591,6.87,1111122 
SCCF RECON,ioos:station:SCCF:13:1,2017-12-12T16:00:00Z,26.5255,-82.0032,2.6,7.05,1111122 
SCCF RECON,ioos:station:SCCF:13:1,2017-12-12T17:00:00Z,26.5255,-82.0032,2.535,7.2,1111122 
SCCF RECON,ioos:station:SCCF:13:1,2017-12-12T18:00:00Z,26.5255,-82.0032,2.442,7.01,1111122 
SCCF RECON,ioos:station:SCCF:13:1,2017-12-12T20:00:00Z,26.5255,-82.0032,2.39,7.15,1111122 
SCCF RECON,ioos:station:SCCF:13:1,2017-12-12T21:00:00Z,26.5255,-82.0032,2.407,7.39,1111122 
SCCF RECON,ioos:station:SCCF:13:1,2017-12-12T22:00:00Z,26.5255,-82.0032,2.45,7.52,1111122 
SCCF RECON,ioos:station:SCCF:13:1,2017-12-13T09:00:00Z,26.5255,-82.0032,2.159,8.18,1111122 
SCCF RECON,ioos:station:SCCF:13:1,2017-12-13T10:00:00Z,26.5255,-82.0032,2.111,8.21,1111122 
SCCF RECON,ioos:station:SCCF:13:1,2017-12-13T11:00:00Z,26.5255,-82.0032,2.129,8.32,1111122 
SCCF RECON,ioos:station:SCCF:13:1,2017-12-13T12:00:00Z,26.5255,-82.0032,2.2,8.37,1111122 
SCCF RECON,ioos:station:SCCF:13:1,2017-12-13T13:00:00Z,26.5255,-82.0032,2.27,8.44,1111122 
SCCF RECON,ioos:station:SCCF:13:1,2017-12-13T14:00:00Z,26.5255,-82.0032,2.33,8.44,1111122 
SCCF RECON,ioos:station:SCCF:13:1,2017-12-13T17:00:00Z,26.5255,-82.0032,2.39,7.37,1111122 
SCCF RECON,ioos:station:SCCF:13:1,2017-12-13T18:00:00Z,26.5255,-82.0032,2.346,7.36,1111122 
SCCF RECON,ioos:station:SCCF:13:1,2017-12-13T19:00:00Z,26.5255,-82.0032,2.28,7.49,1111122 
SCCF RECON,ioos:station:SCCF:13:1,2017-12-13T20:00:00Z,26.5255,-82.0032,2.28,7.46,1111122 
SCCF RECON,ioos:station:SCCF:13:1,2017-12-13T21:00:00Z,26.5255,-82.0032,2.305,7.24,1111122 
SCCF RECON,ioos:station:SCCF:13:1,2017-12-13T22:00:00Z,26.5255,-82.0032,2.35,7.04,1111122 
SCCF RECON,ioos:station:SCCF:13:1,2017-12-14T11:00:00Z,26.5255,-82.0032,2.187,8.21,1111122 
SCCF RECON,ioos:station:SCCF:13:1,2017-12-14T12:00:00Z,26.5255,-82.0032,2.28,8.27,1111122 
SCCF RECON,ioos:station:SCCF:13:1,2017-12-14T13:00:00Z,26.5255,-82.0032,2.387,8.23,1111122 
SCCF RECON,ioos:station:SCCF:13:1,2017-12-14T14:00:00Z,26.5255,-82.0032,2.43,7.98,1111122 
SCCF RECON,ioos:station:SCCF:13:1,2017-12-14T15:00:00Z,26.5255,-82.0032,2.485,7.93,1111122 
SCCF RECON,ioos:station:SCCF:13:1,2017-12-14T16:00:00Z,26.5255,-82.0032,2.533,8.05,1111122 
SCCF RECON,ioos:station:SCCF:13:1,2017-12-14T17:00:00Z,26.5255,-82.0032,2.555,7.96,1111122 
SCCF RECON,ioos:station:SCCF:13:1,2017-12-14T18:00:00Z,26.5255,-82.0032,2.541,8.09,1111122 
SCCF RECON,ioos:station:SCCF:13:1,2017-12-14T19:00:00Z,26.5255,-82.0032,2.5,8.3,1111122 
SCCF RECON,ioos:station:SCCF:13:1,2017-12-14T20:00:00Z,26.5255,-82.0032,2.458,7.74,1111122 
SCCF RECON,ioos:station:SCCF:13:1,2017-12-14T21:00:00Z,26.5255,-82.0032,2.43,8.42,1111122 
SCCF RECON,ioos:station:SCCF:13:1,2017-12-14T22:00:00Z,26.5255,-82.0032,2.41,7.88,1111122 
SCCF RECON,ioos:station:SCCF:13:1,2017-12-15T05:00:00Z,26.5255,-82.0032,2.76,7.83,1111122 
SCCF RECON,ioos:station:SCCF:13:1,2017-12-15T06:00:00Z,26.5255,-82.0032,2.68,7.75,1111122 
SCCF RECON,ioos:station:SCCF:13:1,2017-12-15T07:00:00Z,26.5255,-82.0032,2.54,7.7,1111122 
SCCF RECON,ioos:station:SCCF:13:1,2017-12-15T08:00:00Z,26.5255,-82.0032,2.43,7.95,1111122 
SCCF RECON,ioos:station:SCCF:13:1,2017-12-15T09:00:00Z,26.5255,-82.0032,2.341,8.06,1111122 
SCCF RECON,ioos:station:SCCF:13:1,2017-12-15T10:00:00Z,26.5255,-82.0032,2.256,8.09,1111122 
SCCF RECON,ioos:station:SCCF:13:1,2017-12-15T11:00:00Z,26.5255,-82.0032,2.193,8.06,1111122 
SCCF RECON,ioos:station:SCCF:13:1,2017-12-15T12:00:00Z,26.5255,-82.0032,2.21,8.03,1111122 
SCCF RECON,ioos:station:SCCF:13:1,2017-12-15T13:00:00Z,26.5255,-82.0032,2.331,8.07,1111122 
SCCF RECON,ioos:station:SCCF:13:1,2017-12-15T14:00:00Z,26.5255,-82.0032,2.43,8.04,1111122 
SCCF RECON,ioos:station:SCCF:13:1,2017-12-15T15:00:00Z,26.5255,-82.0032,2.48,7.86,1111122 
SCCF RECON,ioos:station:SCCF:13:1,2017-12-15T16:00:00Z,26.5255,-82.0032,2.54,7.89,1111122 
SCCF RECON,ioos:station:SCCF:13:1,2017-12-15T17:00:00Z,26.5255,-82.0032,2.59,7.93,1111122 
SCCF RECON,ioos:station:SCCF:13:1,2017-12-15T18:00:00Z,26.5255,-82.0032,2.573,7.97,1111122 
SCCF RECON,ioos:station:SCCF:13:1,2017-12-15T19:00:00Z,26.5255,-82.0032,2.53,8.14,1111122 
SCCF RECON,ioos:station:SCCF:13:1,2017-12-15T20:00:00Z,26.5255,-82.0032,2.49,7.77,1111122 
SCCF RECON,ioos:station:SCCF:13:1,2017-12-15T21:00:00Z,26.5255,-82.0032,2.45,7.99,1111122 
SCCF RECON,ioos:station:SCCF:13:1,2017-12-15T22:00:00Z,26.5255,-82.0032,2.429,7.89,1111122 
SCCF RECON,ioos:station:SCCF:13:1,2017-12-16T05:00:00Z,26.5255,-82.0032,2.71,7.7,1111122 
SCCF RECON,ioos:station:SCCF:13:1,2017-12-16T06:00:00Z,26.5255,-82.0032,2.62,7.65,1111122 
SCCF RECON,ioos:station:SCCF:13:1,2017-12-16T07:00:00Z,26.5255,-82.0032,2.49,7.69,1111122 
SCCF RECON,ioos:station:SCCF:13:1,2017-12-16T08:00:00Z,26.5255,-82.0032,2.38,7.9,1111122 
SCCF RECON,ioos:station:SCCF:13:1,2017-12-16T09:00:00Z,26.5255,-82.0032,2.295,8.0,1111122 